Regional Weather Roundup
Issued by NWS

Home | Current Version | Previous Version | Text Only | Print | Product List | Glossary On
Versions: 1 2 3 4 5 6 7 8 9 10 11 12 13 14 15 16 17 18 19 20 21 22 23 24 25 26 27 28 29 30 31 32 33 34 35 36 37 38 39 40 41 42 43 44 45 46 47 48 49 50
000
ASUS43 KTOP 260159
RWRKS

WEATHER ROUNDUP FOR KANSAS
NATIONAL WEATHER SERVICE GOODLAND KS
900 PM CDT WED MAY 25 2016

NOTE:  "FAIR" INDICATES FEW OR NO CLOUDS BELOW 12,000 FEET WITH NO
SIGNIFICANT WEATHER AND/OR OBSTRUCTIONS TO VISIBILITY.

KSZ001>006-013>018-027>032-041>047-260300-
NORTHWEST KANSAS

CITY           SKY/WX    TMP DP  RH WIND       PRES   REMARKS
GOODLAND       CLEAR     68  49  50 E5        29.89R
HAYS           CLEAR     66  64  94 NE5       29.84S
HILL CITY      CLEAR     70  63  78 CALM      29.85F
RUSSELL        CLEAR     72  68  87 NE6       29.82R
$$

KSZ061>065-074>080-084>089-260300-
SOUTHWEST KANSAS

CITY           SKY/WX    TMP DP  RH WIND       PRES   REMARKS
DODGE CITY     CLEAR     71  65  81 NE7       29.85R
ELKHART          N/A     74  40  29 SE7         N/A
GARDEN CITY    CLEAR     73  62  68 E10       29.84S
GREAT BEND     CLEAR     73  64  73 N9        29.82R
LIBERAL        CLEAR     75  45  33 S8        29.86R
$$

KSZ066>073-081>083-090>101-260300-
SOUTHEAST KANSAS

CITY           SKY/WX    TMP DP  RH WIND       PRES   REMARKS
CHANUTE        CLEAR     79  72  79 S14       29.84S
COFFEYVILLE    CLOUDY    79  73  82 SE7       29.87R
HUTCHINSON     CLEAR     81  61  50 SW7       29.79R
MEDICINE LODGE   N/A     84  51  31 S5        29.79R
NEWTON         CLEAR     79  70  73 S12         N/A
PARSONS        PTCLDY    80  73  79 S8G16     29.87S
WICHITA INTL   PTCLDY    82  71  69 S16G24    29.80R
WICHITA JABRA  CLOUDY    80  72  76 S14       29.80R
WINFIELD       PTCLDY    80  72  76 S10       29.83R
$$

KSZ007>012-019>026-033>040-048>060-102>105-260300-
NORTHEAST KANSAS

CITY           SKY/WX    TMP DP  RH WIND       PRES   REMARKS
CONCORDIA      CLOUDY    74  69  85 NE3       29.81S
EMPORIA        CLEAR     77  73  87 SE9       29.81S
LAWRENCE       CLOUDY    78  70  76 SE13      29.84R
MANHATTAN      TSTM      76  57  51 S10G33    29.83R
OLATHE IND     MOCLDY    76  70  82 SE7       29.86S
OLATHE EXE     MOCLDY    75  68  78 SE7       29.86S
SALINA         CLEAR     77  69  76 NW9       29.78R
TOPEKA BILLARD CLOUDY    77  70  79 E8        29.82F
TOPEKA FORBES  CLOUDY    78  71  79 SE8       29.83R
$$




USA.gov is the U.S. government's official web portal to all federal, state and local government web resources and services.